User: anonymous   Login
Location: Piotrkow Trybunalski
(51.4000°N, 19.6830°E)
Time: 15:41:50
(UTC+01:00)
Language:

XW-2A - Orbit

View from above orbital plane
View from above orbital plane
View from above satellite
View from above satellite

Ground track
Ground track

The orbit data is extracted from the following two-line orbital elements,

1 40903U 15049E   23080.17128370  .00233665  00000-0  91097-3 0  9991
2 40903  97.1273 147.2074 0006978 173.8010 242.2290 15.86453276422480
Epoch (UTC): 21 March 2023 04:06:38
Eccentricity: 0.0006978
inclination: 97.1273°
perigee height: 307 km
apogee height: 317 km
right ascension of ascending node: 147.2074°
argument of perigee: 173.8010°
revolutions per day: 15.86453276
mean anomaly at epoch: 242.2290°
orbit number at epoch: 42248

The dashed part of the orbit path shows where the satellite is in the earth's shadow,  

DLR